Weather History for KCMI - October, 2010

Change the Weather History Date:

Monday, October 11, 2010

  Actual Average Record
Temperature  
Mean Temperature 70 °F 55 °F  
Max Temperature 85 °F 67 °F - ()
Min Temperature 55 °F 43 °F - ()
Degree Days  
Heating Degree Days 0 10  
Month to date heating degree days 71 98  
Since 1 July heating degree days 113 190  
Cooling Degree Days 5 1  
Month to date cooling degree days 15 12  
Year to date cooling degree days 1324 937  
Growing Degree Days 20 (Base 50)    
Moisture  
Dew Point 47 °F    
Average Humidity 52    
Maximum Humidity 77    
Minimum Humidity 27    
Precipitation  
Precipitation 0.00 in 0.09 in - ()
Month to date precipitation 0.24 1.09  
Year to date precipitation 27.37 31.65  
Sea Level Pressure  
Sea Level Pressure 29.86 in    
Wind  
Wind Speed 5 mph (West)    
Max Wind Speed 15 mph    
Max Gust Speed 21 mph    
Visibility 10 miles    
Events      
T = Trace of Precipitation, MM = Missing Value Source: NWS Daily Summary

Daily Weather History Graph

Daily Weather History Graph

Search for Another Location

Airport or City:

Trip Planner

Search our weather history database for the weather conditions in past years. The results will help you decide how hot, cold, wet, or windy it might be!

Date:

Astronomy

Oct. 11, 2010 Rise Set
Actual Time 6:59 AM CDT 6:19 PM CDT
Civil Twilight 6:32 AM CDT 6:46 PM CDT
Nautical Twilight 6:00 AM CDT 7:18 PM CDT
Astronomical Twilight 5:29 AM CDT 7:49 PM CDT
Moon 11:35 AM CDT (10/11) 8:56 PM CDT (10/11)
Length of Visible Light 12h 14m
Length of Day
11h 20m
Waxing Crescent, 19% of the Moon is Illuminated
Oct 11
Waxing Crescent
Oct 14
First Quarter
Oct 22
Full
Oct 30
Last Quarter
Nov 5
New

Hourly Weather History & Observations

Time (CDT) Temp. Dew Point Humidity Pressure Visibility Wind Dir Wind Speed Gust Speed Precip Events Conditions
12:53 AM 62.1 °F 45.0 °F 53% 29.86 in 10.0 mi WSW 5.8 mph - N/A   Partly Cloudy
1:53 AM 57.9 °F 45.0 °F 62% 29.87 in 10.0 mi SW 5.8 mph - N/A   Clear
2:53 AM 59.0 °F 46.0 °F 62% 29.86 in 10.0 mi SSW 4.6 mph - N/A   Partly Cloudy
3:53 AM 57.9 °F 46.0 °F 65% 29.86 in 10.0 mi SSW 5.8 mph - N/A   Clear
4:53 AM 57.0 °F 46.9 °F 69% 29.86 in 10.0 mi SSW 4.6 mph - N/A   Partly Cloudy
5:53 AM 57.9 °F 46.9 °F 67% 29.86 in 10.0 mi South 5.8 mph - N/A   Clear
6:53 AM 57.9 °F 48.9 °F 72% 29.87 in 10.0 mi Calm Calm - N/A   Partly Cloudy
7:53 AM 55.9 °F 48.9 °F 77% 29.88 in 10.0 mi Calm Calm - N/A   Clear
8:53 AM 66.0 °F 50.0 °F 56% 29.88 in 10.0 mi West 4.6 mph - N/A   Clear
9:53 AM 72.0 °F 52.0 °F 49% 29.88 in 10.0 mi WNW 6.9 mph - N/A   Clear
10:53 AM 75.9 °F 50.0 °F 40% 29.89 in 10.0 mi West 6.9 mph - N/A   Clear
11:53 AM 80.1 °F 48.0 °F 32% 29.88 in 10.0 mi West 8.1 mph - N/A   Clear
12:53 PM 82.0 °F 48.0 °F 30% 29.86 in 10.0 mi West 11.5 mph 20.7 mph N/A   Clear
1:53 PM 84.9 °F 46.9 °F 27% 29.83 in 10.0 mi West 12.7 mph - N/A   Clear
2:53 PM 84.0 °F 46.0 °F 26% 29.82 in 10.0 mi WNW 10.4 mph 16.1 mph N/A   Clear
3:53 PM 84.0 °F 46.9 °F 27% 29.82 in 10.0 mi WSW 10.4 mph - N/A   Clear
4:53 PM 82.9 °F 46.0 °F 27% 29.81 in 10.0 mi West 9.2 mph - N/A   Clear
5:53 PM 78.1 °F 46.0 °F 32% 29.83 in 10.0 mi WSW 6.9 mph - N/A   Clear
6:53 PM 70.0 °F 46.9 °F 44% 29.83 in 10.0 mi Calm Calm - N/A   Clear
7:53 PM 66.0 °F 46.0 °F 48% 29.85 in 10.0 mi Calm Calm - N/A   Partly Cloudy
8:53 PM 64.9 °F 48.0 °F 54% 29.86 in 10.0 mi NNW 3.5 mph - N/A   Clear
9:53 PM 64.0 °F 48.0 °F 56% 29.86 in 10.0 mi North 4.6 mph - N/A   Clear
10:53 PM 62.1 °F 48.0 °F 60% 29.86 in 10.0 mi North 3.5 mph - N/A   Clear
11:53 PM 62.1 °F 48.9 °F 62% 29.86 in 10.0 mi North 3.5 mph - N/A   Clear